�������l�o���
Date,Time,MP-1(��Sv/h),MP-2(��Sv/h),MP-3(��Sv/h),MP-4(��Sv/h),MP-5(��Sv/h),MP-6(��Sv/h),MP-7(��Sv/h),MP-8(��Sv/h),����,����(m/s),���J
2022/11/08,00:00,0.595,0.839,0.531,1.069,0.751,0.341,0.597,0.561,�k�k��,3.4,��
2022/11/08,00:10,0.596,0.841,0.532,1.070,0.751,0.340,0.597,0.563,�k�k��,3.6,��
2022/11/08,00:20,0.595,0.840,0.530,1.071,0.752,0.340,0.597,0.562,�k��,2.9,��
2022/11/08,00:30,0.597,0.841,0.534,1.069,0.751,0.338,0.597,0.563,�k��,3.5,��
2022/11/08,00:40,0.596,0.840,0.532,1.070,0.752,0.339,0.596,0.560,�k��,3.3,��
2022/11/08,00:50,0.594,0.839,0.532,1.070,0.753,0.339,0.597,0.563,�k��,4.1,��
2022/11/08,01:00,0.598,0.841,0.531,1.068,0.751,0.340,0.598,0.561,���k��,3.1,��
2022/11/08,01:10,0.595,0.838,0.537,1.069,0.752,0.339,0.599,0.563,��,3.3,��
2022/11/08,01:20,0.595,0.838,0.533,1.068,0.752,0.340,0.597,0.562,��,2.8,��
2022/11/08,01:30,0.597,0.839,0.531,1.070,0.753,0.339,0.599,0.563,�k�k��,2.0,��
2022/11/08,01:40,0.595,0.838,0.530,1.067,0.750,0.340,0.599,0.562,�k�k��,3.5,��
2022/11/08,01:50,0.595,0.839,0.531,1.070,0.752,0.340,0.597,0.562,�k��,5.2,��
2022/11/08,02:00,0.596,0.839,0.532,1.069,0.752,0.341,0.598,0.562,�k��,6.4,��
2022/11/08,02:10,0.596,0.839,0.531,1.068,0.754,0.340,0.599,0.562,�k��,5.6,��
2022/11/08,02:20,0.596,0.839,0.531,1.069,0.751,0.340,0.597,0.563,�k��,5.7,��
2022/11/08,02:30,0.597,0.840,0.531,1.069,0.751,0.339,0.597,0.563,�k��,5.1,��
2022/11/08,02:40,0.595,0.839,0.532,1.069,0.752,0.340,0.598,0.563,���k��,4.7,��
2022/11/08,02:50,0.597,0.841,0.532,1.073,0.751,0.340,0.599,0.564,�k��,4.4,��
2022/11/08,03:00,0.595,0.840,0.531,1.068,0.753,0.339,0.599,0.562,�k�k��,3.5,��
2022/11/08,03:10,0.596,0.839,0.532,1.069,0.752,0.341,0.597,0.563,�k�k��,2.3,��
2022/11/08,03:20,0.593,0.838,0.532,1.067,0.753,0.340,0.599,0.562,�k�k��,4.1,��
2022/11/08,03:30,0.596,0.841,0.531,1.069,0.751,0.339,0.597,0.563,�k��,4.1,��
2022/11/08,03:40,0.595,0.836,0.532,1.067,0.753,0.340,0.600,0.562,�k��,3.4,��
2022/11/08,03:50,0.595,0.839,0.530,1.069,0.752,0.341,0.598,0.562,�k��,3.0,��
2022/11/08,04:00,0.596,0.839,0.531,1.068,0.753,0.339,0.597,0.562,�k��,3.7,��
2022/11/08,04:10,0.596,0.836,0.530,1.071,0.752,0.339,0.598,0.560,���k��,3.8,��
2022/11/08,04:20,0.595,0.839,0.530,1.070,0.750,0.340,0.598,0.563,�k��,3.7,��
2022/11/08,04:30,0.595,0.838,0.533,1.069,0.751,0.339,0.599,0.563,�k��,4.1,��
2022/11/08,04:40,0.596,0.838,0.532,1.070,0.750,0.340,0.599,0.563,�k��,5.2,��
2022/11/08,04:50,0.595,0.839,0.532,1.070,0.752,0.340,0.599,0.562,�k��,4.4,��
2022/11/08,05:00,0.596,0.839,0.531,1.070,0.753,0.338,0.600,0.562,�k��,4.5,��
2022/11/08,05:10,0.597,0.840,0.534,1.069,0.751,0.339,0.597,0.562,�k�k��,4.3,��
2022/11/08,05:20,0.594,0.839,0.531,1.071,0.751,0.339,0.598,0.562,�k�k��,4.6,��
2022/11/08,05:30,0.594,0.838,0.534,1.069,0.751,0.338,0.597,0.562,���k��,6.2,��
2022/11/08,05:40,0.594,0.837,0.533,1.071,0.751,0.338,0.598,0.563,�k��,5.1,��
2022/11/08,05:50,0.596,0.839,0.531,1.070,0.752,0.339,0.598,0.563,�k��,4.9,��
2022/11/08,06:00,0.596,0.839,0.533,1.068,0.752,0.340,0.600,0.562,�k�k��,4.5,��
2022/11/08,06:10,0.595,0.839,0.532,1.070,0.752,0.340,0.599,0.563,�k�k��,4.8,��
2022/11/08,06:20,0.596,0.837,0.532,1.069,0.751,0.338,0.598,0.562,�k��,4.6,��
2022/11/08,06:30,0.596,0.839,0.532,1.069,0.751,0.338,0.598,0.562,�k��,5.0,��
2022/11/08,06:40,0.594,0.837,0.532,1.069,0.752,0.340,0.599,0.562,�k��,6.3,��
2022/11/08,06:50,0.595,0.837,0.532,1.069,0.750,0.340,0.598,0.563,�k��,5.2,��
2022/11/08,07:00,0.596,0.838,0.532,1.068,0.752,0.338,0.600,0.563,�k�k��,6.1,��
2022/11/08,07:10,0.595,0.841,0.532,1.071,0.752,0.339,0.599,0.562,�k��,5.2,��
2022/11/08,07:20,0.595,0.839,0.532,1.071,0.750,0.339,0.598,0.561,�k��,5.7,��
2022/11/08,07:30,0.596,0.839,0.534,1.070,0.750,0.338,0.597,0.563,���k��,6.7,��
2022/11/08,07:40,0.595,0.840,0.531,1.071,0.751,0.339,0.599,0.562,�k��,5.1,��
2022/11/08,07:50,0.594,0.838,0.532,1.071,0.751,0.340,0.598,0.564,�k��,3.7,��
2022/11/08,08:00,0.596,0.839,0.533,1.070,0.752,0.339,0.599,0.564,�k��,3.8,��
2022/11/08,08:10,0.597,0.840,0.532,1.070,0.748,0.341,0.599,0.562,�k��,3.7,��
2022/11/08,08:20,0.596,0.840,0.533,1.069,0.752,0.339,0.598,0.562,�k��,3.7,��
2022/11/08,08:30,0.596,0.833,0.532,1.071,0.751,0.339,0.599,0.563,�k��,4.2,��
2022/11/08,08:40,0.597,0.818,0.533,1.072,0.751,0.340,0.600,0.562,���k��,3.4,��
2022/11/08,08:50,0.597,0.817,0.531,1.070,0.750,0.339,0.598,0.564,�k��,2.6,��
2022/11/08,09:00,0.598,0.816,0.533,1.072,0.751,0.340,0.598,0.563,�k��,3.7,��
2022/11/08,09:10,0.596,0.815,0.533,1.072,0.752,0.341,0.597,0.562,�k��,1.7,��
2022/11/08,09:20,0.596,0.818,0.533,1.070,0.754,0.341,0.598,0.563,�k�k��,3.5,��
2022/11/08,09:30,0.596,0.816,0.532,1.071,0.752,0.340,0.598,0.562,�k�k��,2.6,��
2022/11/08,09:40,0.596,0.815,0.533,1.072,0.753,0.342,0.596,0.564,�k�k��,2.0,��
2022/11/08,09:50,0.596,0.815,0.534,1.070,0.752,0.340,0.599,0.563,���k��,1.4,��
2022/11/08,10:00,0.596,0.814,0.532,1.071,0.751,0.340,0.597,0.563,�k��,1.1,��
2022/11/08,10:10,0.595,0.814,0.533,1.071,0.751,0.338,0.598,0.564,�k�k��,3.8,��
2022/11/08,10:20,0.596,0.815,0.531,1.072,0.749,0.339,0.598,0.564,�k,2.3,��
2022/11/08,10:30,0.597,0.816,0.531,1.070,0.751,0.339,0.598,0.564,�k��,2.6,��
2022/11/08,10:40,0.597,0.816,0.529,1.070,0.751,0.338,0.598,0.563,�k��,3.1,��
2022/11/08,10:50,0.596,0.816,0.532,1.071,0.752,0.339,0.599,0.564,�k��,3.0,��
2022/11/08,11:00,0.595,0.816,0.531,1.071,0.754,0.338,0.598,0.566,�k��,2.6,��
2022/11/08,11:10,0.597,0.815,0.532,1.071,0.753,0.338,0.597,0.563,�k�k��,2.6,��
2022/11/08,11:20,0.598,0.817,0.532,1.071,0.753,0.339,0.598,0.563,�k��,2.9,��
2022/11/08,11:30,0.598,0.817,0.531,1.071,0.750,0.343,0.598,0.564,���k��,3.2,��
2022/11/08,11:40,0.597,0.819,0.533,1.072,0.754,0.341,0.599,0.562,���k��,3.2,��
2022/11/08,11:50,0.597,0.819,0.532,1.071,0.751,0.338,0.598,0.564,���k��,1.9,��
2022/11/08,12:00,0.599,0.814,0.532,1.071,0.752,0.338,0.598,0.563,�k��,1.9,��
2022/11/08,12:10,0.597,0.812,0.531,1.072,0.753,0.339,0.598,0.563,-,CALM,��
2022/11/08,12:20,0.598,0.814,0.532,1.070,0.752,0.340,0.598,0.562,��,4.0,��
2022/11/08,12:30,0.597,0.815,0.532,1.072,0.751,0.340,0.598,0.563,���k��,6.8,��
2022/11/08,12:40,0.600,0.816,0.531,1.072,0.752,0.341,0.598,0.563,���k��,6.8,��
2022/11/08,12:50,0.597,0.818,0.533,1.073,0.753,0.339,0.598,0.563,���k��,8.5,��
2022/11/08,13:00,0.598,0.815,0.533,1.072,0.752,0.340,0.598,0.562,���k��,7.3,��
2022/11/08,13:10,0.598,0.818,0.531,1.073,0.751,0.339,0.599,0.561,���k��,5.8,��
2022/11/08,13:20,0.598,0.816,0.531,1.073,0.754,0.337,0.598,0.562,���k��,6.7,��
2022/11/08,13:30,0.597,0.817,0.531,1.072,0.752,0.337,0.599,0.561,���k��,6.9,��
2022/11/08,13:40,0.596,0.815,0.532,1.073,0.752,0.338,0.599,0.561,��,4.0,��
2022/11/08,13:50,0.597,0.820,0.533,1.073,0.752,0.339,0.598,0.561,��,6.2,��
2022/11/08,14:00,0.598,0.816,0.530,1.072,0.753,0.339,0.599,0.561,���쐼,7.3,��
2022/11/08,14:10,0.600,0.817,0.532,1.074,0.751,0.339,0.599,0.562,���쐼,5.5,��
2022/11/08,14:20,0.600,0.824,0.531,1.073,0.753,0.339,0.598,0.564,��,7.1,��
2022/11/08,14:30,0.599,0.840,0.530,1.071,0.751,0.339,0.596,0.562,��,6.8,��
2022/11/08,14:40,0.599,0.838,0.532,1.069,0.753,0.338,0.597,0.561,��,6.1,��
2022/11/08,14:50,0.597,0.840,0.532,1.074,0.752,0.338,0.596,0.561,���쐼,4.6,��
2022/11/08,15:00,0.598,0.836,0.531,1.073,0.755,0.339,0.596,0.560,��,5.0,��
2022/11/08,15:10,0.598,0.841,0.531,1.072,0.754,0.337,0.596,0.561,���쐼,5.5,��
2022/11/08,15:20,0.597,0.841,0.530,1.071,0.754,0.338,0.599,0.562,���쐼,5.5,��
2022/11/08,15:30,0.598,0.843,0.532,1.074,0.752,0.339,0.596,0.564,���쐼,4.3,��
2022/11/08,15:40,0.599,0.842,0.529,1.073,0.753,0.339,0.598,0.563,��,4.2,��
2022/11/08,15:50,0.598,0.843,0.531,1.072,0.751,0.341,0.600,0.564,��,4.6,��
2022/11/08,16:00,0.596,0.841,0.532,1.075,0.751,0.340,0.600,0.563,��,3.9,��
2022/11/08,16:10,0.594,0.840,0.532,1.072,0.753,0.341,0.598,0.564,��,5.4,��
2022/11/08,16:20,0.593,0.843,0.531,1.072,0.753,0.341,0.598,0.565,��,4.4,��
2022/11/08,16:30,0.591,0.844,0.530,1.073,0.752,0.340,0.597,0.564,��,4.4,��
2022/11/08,16:40,0.590,0.842,0.529,1.072,0.752,0.341,0.597,0.564,��,4.4,��
2022/11/08,16:50,0.588,0.843,0.532,1.072,0.751,0.340,0.598,0.564,��,4.9,��
2022/11/08,17:00,0.589,0.845,0.534,1.074,0.752,0.339,0.597,0.564,��,5.4,��
2022/11/08,17:10,0.591,0.843,0.534,1.072,0.755,0.341,0.599,0.563,��,6.2,��
2022/11/08,17:20,0.591,0.844,0.534,1.072,0.753,0.341,0.598,0.563,��,7.1,��
2022/11/08,17:30,0.591,0.844,0.532,1.072,0.753,0.342,0.598,0.562,��,7.0,��
2022/11/08,17:40,0.592,0.845,0.533,1.071,0.754,0.341,0.598,0.565,���k��,5.6,��
2022/11/08,17:50,0.592,0.843,0.533,1.072,0.754,0.339,0.598,0.563,���k��,4.4,��
2022/11/08,18:00,0.590,0.845,0.534,1.070,0.754,0.339,0.598,0.562,���k��,2.5,��
2022/11/08,18:10,0.592,0.842,0.534,1.073,0.753,0.340,0.598,0.562,���k��,2.2,��
2022/11/08,18:20,0.591,0.843,0.532,1.072,0.754,0.339,0.597,0.564,���k��,1.7,��
2022/11/08,18:30,0.592,0.842,0.532,1.071,0.754,0.340,0.598,0.564,�k��,2.2,��
2022/11/08,18:40,0.592,0.844,0.532,1.073,0.753,0.341,0.596,0.563,���k��,2.8,��
2022/11/08,18:50,0.592,0.844,0.531,1.074,0.750,0.340,0.596,0.562,���k��,4.1,��
2022/11/08,19:00,0.591,0.844,0.533,1.073,0.755,0.338,0.598,0.563,�k��,2.9,��
2022/11/08,19:10,0.591,0.841,0.534,1.072,0.751,0.339,0.598,0.564,���k��,3.1,��
2022/11/08,19:20,0.591,0.842,0.532,1.073,0.753,0.339,0.597,0.562,���k��,2.2,��
2022/11/08,19:30,0.591,0.843,0.534,1.072,0.755,0.340,0.597,0.563,���k��,3.8,��
2022/11/08,19:40,0.590,0.843,0.535,1.074,0.753,0.338,0.597,0.561,���k��,2.6,��
2022/11/08,19:50,0.590,0.841,0.532,1.074,0.752,0.339,0.598,0.563,���k��,4.2,��
2022/11/08,20:00,0.591,0.842,0.532,1.073,0.753,0.339,0.598,0.564,���k��,2.9,��
2022/11/08,20:10,0.590,0.841,0.532,1.071,0.754,0.339,0.598,0.562,�k��,2.6,��
2022/11/08,20:20,0.589,0.844,0.532,1.074,0.755,0.338,0.598,0.563,���k��,4.2,��
2022/11/08,20:30,0.591,0.842,0.532,1.073,0.751,0.339,0.597,0.563,���k��,4.5,��
2022/11/08,20:40,0.592,0.842,0.532,1.072,0.753,0.340,0.599,0.561,�k��,3.8,��
2022/11/08,20:50,0.590,0.843,0.532,1.071,0.754,0.339,0.599,0.562,���k��,4.2,��
2022/11/08,21:00,0.591,0.840,0.532,1.071,0.753,0.340,0.597,0.563,���k��,5.2,��
2022/11/08,21:10,0.590,0.843,0.534,1.072,0.753,0.339,0.598,0.561,���k��,4.8,��
2022/11/08,21:20,0.590,0.840,0.531,1.073,0.754,0.338,0.597,0.564,���k��,4.0,��
2022/11/08,21:30,0.590,0.840,0.532,1.072,0.755,0.338,0.597,0.563,���k��,4.3,��
2022/11/08,21:40,0.590,0.840,0.533,1.068,0.753,0.338,0.597,0.562,���k��,4.3,��
2022/11/08,21:50,0.589,0.842,0.533,1.074,0.751,0.338,0.598,0.562,���k��,4.8,��
2022/11/08,22:00,0.591,0.842,0.532,1.071,0.753,0.339,0.597,0.563,���k��,4.1,��
2022/11/08,22:10,0.588,0.844,0.532,1.075,0.754,0.339,0.598,0.561,�k��,3.6,��
2022/11/08,22:20,0.589,0.843,0.532,1.070,0.755,0.340,0.599,0.563,�k��,4.0,��
2022/11/08,22:30,0.589,0.840,0.533,1.073,0.753,0.339,0.598,0.563,�k��,4.8,��
2022/11/08,22:40,0.591,0.843,0.532,1.073,0.752,0.339,0.596,0.562,�k��,4.7,��
2022/11/08,22:50,0.589,0.842,0.532,1.073,0.752,0.338,0.598,0.563,�k��,4.7,��
2022/11/08,23:00,0.588,0.842,0.532,1.071,0.752,0.340,0.598,0.562,�k��,5.2,��
2022/11/08,23:10,0.590,0.841,0.532,1.071,0.751,0.338,0.597,0.564,�k��,5.1,��
2022/11/08,23:20,0.591,0.842,0.531,1.070,0.754,0.338,0.599,0.562,�k��,6.3,��
2022/11/08,23:30,0.589,0.840,0.531,1.073,0.753,0.339,0.599,0.562,�k��,5.6,��
2022/11/08,23:40,0.589,0.840,0.533,1.071,0.752,0.340,0.599,0.561,�k��,5.8,��
2022/11/08,23:50,0.590,0.840,0.532,1.070,0.754,0.339,0.597,0.561,�k��,4.6,��
